1486018800.86,28417,6.63,72996.5,-8.89,-41.11,-41.61,0,*56
1486018802.1,28418,6.63,72986.0,-8.89,-41.35,-41.73,0,*5C
1486018803.34,28419,6.69,72978.8,-8.91,-41.29,-41.81,0,*54
1486018804.58,28420,6.69,72972.3,-8.91,-41.41,-41.87,0,*56
1486018805.81,28421,6.69,72982.0,-8.91,-41.41,-41.87,0,*57
1486018807.06,28422,6.63,72982.8,-8.91,-41.29,-41.81,0,*5C
1486018808.31,28423,6.63,72978.3,-8.91,-41.41,-41.81,0,*53
1486018809.6,28424,6.69,72966.5,-8.91,-41.23,-41.67,0,*58
1486018810.87,28425,6.63,72976.5,-8.91,-41.41,-41.67,0,*5D
1486018812.08,28426,6.63,72972.8,-8.93,-41.49,-41.73,0,*51
1486018813.32,28427,6.63,72972.0,-8.93,-41.55,-41.87,0,*56
1486018814.59,28428,6.69,72976.5,-8.93,-41.35,-41.67,0,*51
1486018815.86,28429,6.63,72964.8,-8.93,-41.35,-41.67,0,*50
1486018817.07,28430,6.69,72956.0,-8.93,-41.49,-41.87,0,*5D
1486018818.34,28431,6.63,72954.5,-8.95,-41.35,-41.87,0,*51
1486018819.59,28432,6.69,72954.5,-8.93,-41.67,-41.93,0,*56
1486018820.89,28433,6.63,72948.0,-8.95,-41.35,-41.55,0,*5C
1486018822.12,28434,6.63,72942.5,-8.93,-41.11,-41.55,0,*5B
1486018823.39,28435,6.63,72938.3,-8.95,-41.35,-41.73,0,*5E
1486018824.64,28436,6.63,72936.3,-8.95,-41.29,-41.55,0,*54
1486018825.87,28437,6.69,72940.0,-8.95,-41.29,-41.49,0,*58
1486018827.14,28438,6.63,72934.5,-8.95,-41.35,-41.73,0,*53
1486018828.37,28439,6.63,72938.5,-8.95,-41.49,-41.73,0,*59
1486018829.61,28440,6.63,72946.5,-8.93,-41.35,-41.73,0,*5A
1486018830.82,28441,6.63,72954.8,-8.97,-41.41,-41.73,0,*5C
1486018832.05,28442,6.63,72954.5,-8.95,-41.29,-41.73,0,*53
1486018833.32,28443,6.69,72948.8,-8.93,-41.23,-41.55,0,*5A
1486018834.58,28444,6.69,72952.0,-8.95,-41.23,-41.73,0,*5F
1486018835.85,28445,6.69,72952.3,-8.95,-41.35,-41.73,0,*59
1486018837.08,28446,6.69,72952.5,-8.95,-41.49,-41.87,0,*5A
1486018838.31,28447,6.69,72948.5,-8.95,-41.29,-41.87,0,*5D
1486018839.58,28448,6.69,72946.0,-8.95,-41.35,-41.87,0,*5F
1486018840.84,28449,6.69,72950.0,-8.95,-41.35,-41.73,0,*55
1486018842.14,28450,6.69,72944.0,-8.95,-41.35,-41.67,0,*58
1486018843.39,28451,6.63,72938.3,-8.97,-41.55,-41.93,0,*56
1486018844.63,28452,6.69,72940.8,-8.97,-41.35,-41.73,0,*5D
1486018845.87,28453,6.63,72936.0,-8.97,-41.35,-41.73,0,*5C
1486018847.13,28454,6.69,72944.3,-8.99,-41.61,-41.81,0,*59
1486018848.37,28455,6.69,72948.0,-8.99,-41.41,-41.73,0,*57
1486018849.63,28456,6.63,72948.8,-8.99,-41.41,-41.55,0,*50
1486018850.92,28457,6.63,72958.5,-8.99,-41.55,-41.55,0,*54
1486018852.21,28458,6.69,72970.5,-8.99,-41.35,-41.55,0,*5D
1486018853.46,28459,6.69,72968.3,-8.99,-41.29,-41.55,0,*51
1486018854.69,28460,6.69,72968.0,-8.99,-41.29,-41.61,0,*5C
1486018855.93,28461,6.69,72972.8,-9.03,-41.41,-41.87,0,*59
1486018857.19,28462,6.69,72982.8,-9.03,-41.49,-41.81,0,*54
1486018858.45,28463,6.69,72986.3,-9.03,-41.41,-41.81,0,*5D
1486018859.71,28464,6.69,72990.8,-8.99,-41.29,-41.55,0,*5F
1486018860.96,28465,6.69,72990.0,-8.99,-41.17,-41.81,0,*5A
1486018862.2,28466,6.69,72980.5,-9.05,-41.49,-42.05,0,*59
1486018863.47,28467,6.69,72976.3,-9.05,-41.67,-42.19,0,*59
1486018864.76,28468,6.69,72974.5,-9.03,-41.67,-42.19,0,*50
1486018866.0,28469,6.69,72968.3,-9.05,-41.67,-41.99,0,*5C
1486018867.27,28470,6.69,72948.0,-9.05,-41.67,-42.05,0,*52
1486018868.55,28471,6.69,72942.8,-9.03,-41.67,-42.05,0,*55
1486018869.84,28472,6.69,72942.5,-9.03,-41.67,-42.05,0,*56
1486018871.13,28473,6.69,72932.3,-9.03,-41.81,-42.05,0,*5F
1486018872.41,28474,6.69,72936.5,-9.03,-41.67,-42.05,0,*50
1486018873.7,28475,6.69,72924.0,-9.03,-41.81,-42.05,0,*59
1486018874.97,28476,6.69,72918.3,-9.03,-41.67,-41.99,0,*54
1486018876.21,28477,6.69,72902.3,-9.05,-41.81,-41.99,0,*5B
1486018877.47,28478,6.69,72940.8,-9.03,-41.87,-42.05,0,*52
1486018878.73,28479,6.69,72948.0,-9.05,-41.81,-42.05,0,*53
1486018879.97,28480,6.63,72934.5,-9.05,-41.81,-41.99,0,*53
1486018881.26,28481,6.69,72940.8,-9.03,-41.81,-42.05,0,*52
1486018882.5,28482,6.69,72938.8,-9.05,-41.67,-41.99,0,*59
1486018883.79,28483,6.69,72950.5,-9.03,-41.67,-42.05,0,*58
1486018885.07,28484,6.69,72962.8,-9.03,-41.67,-42.05,0,*5F
1486018886.34,28485,6.69,72962.8,-9.03,-41.67,-41.99,0,*58
1486018887.58,28486,6.69,72952.5,-9.03,-41.61,-41.87,0,*52
1486018888.84,28487,6.69,72952.3,-9.03,-41.49,-41.81,0,*5F
1486018890.13,28488,6.63,72958.0,-9.03,-41.81,-42.19,0,*56
1486018891.42,28489,6.69,72948.8,-9.03,-41.67,-42.05,0,*52
1486018892.68,28490,6.69,72958.3,-9.03,-41.81,-41.99,0,*54
1486018893.95,28491,6.69,72956.0,-9.03,-41.81,-41.99,0,*55
1486018895.21,28492,6.69,72946.8,-9.03,-41.41,-41.67,0,*5B
1486018896.48,28493,6.69,72944.8,-9.03,-41.35,-41.61,0,*5F
1486018897.78,28494,6.69,72954.0,-9.03,-41.35,-41.67,0,*5E
1486018899.07,28495,6.69,72946.5,-9.03,-41.23,-41.67,0,*58
1486018900.34,28496,6.69,72946.5,-9.03,-41.23,-41.61,0,*5D
1486018901.6,28497,6.69,72936.3,-9.03,-41.41,-41.67,0,*5E
1486018902.87,28498,6.69,72930.5,-9.03,-41.35,-41.49,0,*5E
1486018904.13,28499,6.69,72946.3,-9.03,-40.65,-40.85,0,*5A
1486018905.37,28500,6.69,72954.5,-9.03,-41.03,-41.41,0,*53
1486018906.67,28501,6.69,72950.3,-9.03,-41.35,-41.67,0,*53
1486018907.93,28502,6.69,72942.8,-9.03,-41.35,-41.61,0,*56
1486018909.2,28503,6.69,72946.5,-8.99,-40.97,-40.91,0,*52
1486018910.44,28504,6.69,72962.5,-9.03,-41.41,-41.99,0,*54
1486018911.7,28505,6.69,72952.5,-8.99,-41.55,-41.73,0,*56
1486018912.93,28506,6.69,72954.5,-8.99,-41.29,-41.73,0,*5E
1486018914.21,28507,6.69,72964.5,-8.99,-41.35,-41.81,0,*5F
1486018915.47,28508,6.69,72960.5,-9.03,-41.49,-41.81,0,*59
1486018916.71,28509,6.69,72962.5,-8.99,-41.41,-41.73,0,*5F
1486018917.99,28510,6.69,72956.5,-8.99,-41.55,-41.81,0,*5F
1486018919.27,28511,6.69,72962.5,-8.99,-41.55,-41.93,0,*5D
1486018920.53,28512,6.69,72962.3,-9.03,-41.81,-41.99,0,*5F
1486018921.79,28513,6.69,72962.0,-9.03,-41.67,-41.99,0,*56
1486018923.06,28514,6.69,72952.5,-9.03,-41.67,-41.99,0,*51
1486018924.32,28515,6.69,72944.5,-9.03,-41.81,-41.99,0,*58
1486018925.59,28516,6.69,72938.8,-9.03,-41.81,-41.99,0,*5B
1486018926.85,28517,6.69,72942.0,-9.03,-41.81,-41.99,0,*5A
1486018928.12,28518,6.69,72944.3,-9.03,-41.67,-41.87,0,*52
1486018929.4,28519,6.69,72944.0,-9.03,-41.67,-41.81,0,*55
1486018930.7,28520,6.69,72954.8,-9.03,-41.35,-41.23,0,*50
1486018931.94,28521,6.69,72964.8,-9.05,-40.47,-40.59,0,*5F
1486018933.18,28522,6.69,72970.0,-9.03,-39.65,-39.65,0,*55
1486018934.45,28523,6.69,72976.5,-9.03,-38.49,-39.65,0,*5B
1486018935.73,28524,6.69,72974.3,-9.03,-39.65,-40.59,0,*52
1486018937.01,28525,6.69,72970.5,-9.03,-40.21,-40.59,0,*5D
1486018938.25,28526,6.69,72956.0,-9.05,-40.65,-41.23,0,*54
1486018939.48,28527,6.69,72960.0,-9.05,-40.65,-41.23,0,*55
1486018940.69,28528,6.69,72964.5,-9.05,-41.17,-41.17,0,*59
1486018941.91,28529,6.69,72966.5,-9.05,-41.49,-41.87,0,*5A
1486018943.12,28530,6.69,72960.0,-9.05,-41.41,-41.87,0,*5A
1486018944.39,28531,6.69,72954.8,-9.05,-40.85,-41.35,0,*5B
1486018945.66,28532,6.69,72954.5,-9.05,-40.85,-40.85,0,*52
1486018946.92,28533,6.69,72962.0,-9.05,-40.21,-40.29,0,*5B
1486018948.18,28534,6.69,72970.0,-9.07,-39.71,-40.03,0,*5D
1486018949.45,28535,6.69,72958.5,-9.05,-40.41,-40.41,0,*55
1486018950.67,28536,6.69,72966.3,-9.05,-40.15,-39.65,0,*5F
1486018951.92,28537,6.69,72974.0,-9.05,-39.79,-40.47,0,*54
1486018953.21,28538,6.69,72960.0,-9.07,-40.85,-41.67,0,*57
1486018954.44,28539,6.69,72972.8,-9.07,-41.11,-41.41,0,*5E
1486018955.7,28540,6.69,72962.0,-9.07,-41.29,-41.67,0,*5F
1486018956.93,28541,6.69,72968.5,-9.07,-41.29,-41.41,0,*5A
1486018958.2,28542,6.69,72966.8,-9.07,-41.49,-41.67,0,*5B
1486018959.46,28543,6.69,72964.5,-9.07,-41.67,-41.73,0,*53
1486018960.71,28544,6.69,72976.0,-9.09,-41.55,-41.73,0,*5B
1486018961.99,28545,6.69,72976.3,-9.07,-41.67,-41.93,0,*5B
1486018963.25,28546,6.69,72960.3,-9.07,-41.55,-41.73,0,*57
1486018964.47,28547,6.69,72946.8,-9.09,-41.49,-41.73,0,*55
1486018965.68,28548,6.69,72946.3,-9.09,-41.49,-41.73,0,*5A
1486018966.92,28549,6.69,72970.0,-9.07,-41.49,-41.73,0,*55
1486018968.18,28550,6.69,72958.0,-9.07,-41.67,-41.87,0,*5A
1486018969.44,28551,6.69,72960.0,-9.07,-41.73,-41.93,0,*5B
1486018970.67,28552,6.69,72958.8,-9.09,-42.05,-42.13,0,*5F
1486018971.93,28553,6.69,72972.0,-9.07,-41.93,-42.25,0,*59
1486018973.18,28554,6.69,72972.0,-9.09,-41.93,-42.25,0,*50
1486018974.47,28555,6.69,72982.0,-9.11,-41.93,-42.19,0,*57
1486018975.74,28556,6.69,72986.8,-9.11,-41.81,-42.13,0,*5D
1486018977.02,28557,6.69,72956.8,-9.11,-41.55,-41.93,0,*5E
1486018978.31,28558,6.69,72936.5,-9.11,-41.55,-41.81,0,*52
1486018979.57,28559,6.69,72932.0,-9.11,-41.49,-41.81,0,*5E
1486018980.84,28560,6.69,72944.3,-9.11,-41.55,-41.73,0,*54
1486018982.11,28561,6.69,72954.8,-9.11,-41.55,-41.73,0,*55
1486018983.35,28562,6.69,72944.3,-9.11,-41.73,-41.99,0,*56
1486018984.61,28563,6.69,72952.8,-9.11,-41.81,-41.99,0,*5A
1486018985.85,28564,6.69,72956.3,-9.11,-41.73,-41.99,0,*50
1486018987.14,28565,6.69,72964.3,-9.11,-41.81,-41.93,0,*56
1486018988.4,28566,6.69,72974.3,-9.11,-41.73,-41.93,0,*58
1486018989.67,28567,6.69,72964.5,-9.11,-41.49,-41.55,0,*5A
1486018990.9,28568,6.69,72966.5,-9.13,-41.29,-41.35,0,*57
1486018992.17,28569,6.69,72968.5,-9.11,-41.35,-41.49,0,*52
1486018993.41,28570,6.69,72972.0,-9.13,-41.35,-41.49,0,*58
1486018994.65,28571,6.69,72974.8,-9.11,-41.29,-41.61,0,*5C
1486018995.88,28572,6.69,72974.0,-9.11,-41.29,-41.29,0,*53
1486018997.12,28573,6.69,72974.5,-9.11,-41.11,-41.17,0,*54
1486018998.36,28574,6.69,72974.0,-9.11,-40.73,-41.11,0,*50
1486018999.61,28575,6.69,72974.0,-9.11,-40.53,-40.91,0,*5A
1486019000.85,28576,6.69,72968.0,-9.13,-40.59,-40.91,0,*51
1486019002.12,28577,6.69,72968.0,-9.11,-40.35,-40.41,0,*55
1486019003.39,28578,6.69,72974.0,-9.13,-40.41,-41.55,0,*5F
1486019004.63,28579,6.69,72976.5,-9.11,-41.17,-41.61,0,*59
1486019005.92,28580,6.69,72958.8,-9.11,-41.35,-41.55,0,*58
1486019007.16,28581,6.69,72952.0,-9.13,-41.35,-41.61,0,*5C
1486019008.43,28582,6.69,72958.8,-9.11,-41.35,-41.61,0,*5D
1486019009.73,28583,6.69,72944.5,-9.11,-41.35,-41.55,0,*5B
1486019011.0,28584,6.69,72942.3,-9.13,-41.35,-41.35,0,*58
1486019012.27,28585,6.69,72940.0,-9.11,-41.49,-41.35,0,*50
1486019013.47,28586,6.69,72920.5,-9.13,-41.29,-41.49,0,*5C
1486019014.74,28587,6.69,72930.8,-9.11,-41.35,-41.49,0,*52
1486019015.97,28588,6.69,72932.5,-9.11,-41.29,-41.49,0,*50
1486019017.19,28589,6.69,72940.5,-9.13,-41.17,-41.29,0,*58
1486019018.4,28590,6.69,72938.3,-9.13,-41.29,-41.49,0,*5B
1486019019.61,28591,6.69,72946.0,-9.13,-41.29,-41.29,0,*5C
1486019020.82,28592,6.69,72950.8,-9.13,-41.17,-41.29,0,*52
1486019022.03,28593,6.69,72950.5,-9.13,-41.29,-41.49,0,*58
1486019023.24,28594,6.69,72960.3,-9.13,-41.17,-41.29,0,*54
1486019024.48,28595,6.69,72956.5,-9.11,-41.17,-41.49,0,*51
1486019025.72,28596,6.69,72956.3,-9.13,-41.29,-41.55,0,*50
1486019026.95,28597,6.69,72948.8,-9.11,-41.29,-41.49,0,*5E
1486019028.19,28598,6.69,72940.8,-9.13,-41.29,-41.35,0,*58
1486019029.42,28599,6.69,72950.8,-9.13,-41.29,-41.55,0,*5F
1486019030.69,28600,6.69,72956.0,-9.11,-41.11,-41.35,0,*53
1486019031.9,28601,6.69,72956.8,-9.13,-41.17,-41.49,0,*5D
1486019033.14,28602,6.69,72960.3,-9.15,-41.41,-41.61,0,*51
1486019034.37,28603,6.69,72964.0,-9.13,-41.29,-41.55,0,*5F
1486019035.61,28604,6.69,72958.5,-9.13,-41.29,-41.55,0,*58
1486019036.85,28605,6.69,72966.8,-9.13,-41.29,-41.35,0,*5F
1486019038.12,28606,6.69,72964.3,-9.13,-41.35,-41.55,0,*57
1486019039.36,28607,6.69,72970.3,-9.13,-41.29,-41.55,0,*5B
1486019040.6,28608,6.69,72976.3,-9.13,-41.35,-41.61,0,*5E
1486019041.81,28609,6.69,72970.8,-9.13,-41.29,-41.29,0,*5E
1486019043.02,28610,6.69,72970.0,-9.13,-41.11,-41.17,0,*50
1486019044.24,28611,6.69,72982.5,-9.13,-41.11,-41.17,0,*51
1486019045.48,28612,6.69,72996.8,-9.13,-41.17,-41.35,0,*54
1486019046.75,28613,6.69,72970.8,-9.13,-41.35,-41.35,0,*55
1486019047.99,28614,6.69,72906.8,-9.13,-41.29,-41.35,0,*5F
1486019049.2,28615,6.69,72914.5,-9.13,-41.29,-41.17,0,*5E
1486019050.41,28616,6.69,72932.3,-9.13,-41.29,-41.29,0,*50
1486019051.65,28617,6.69,72936.5,-9.11,-41.17,-41.11,0,*55
1486019052.87,28618,6.69,72956.0,-9.13,-41.17,-41.29,0,*53
1486019054.08,28619,6.69,72948.3,-9.13,-41.29,-41.17,0,*52
1486019055.29,28620,6.69,72954.3,-9.13,-41.29,-41.29,0,*55
1486019056.56,28621,6.69,72944.8,-9.13,-41.35,-41.35,0,*54
1486019057.8,28622,6.69,72936.0,-9.13,-41.29,-41.35,0,*5A
1486019059.04,28623,6.69,72944.0,-9.11,-41.17,-41.29,0,*59
1486019060.24,28624,6.69,72958.5,-9.13,-41.29,-41.49,0,*57
1486019061.49,28625,6.69,72936.5,-9.13,-41.17,-41.35,0,*50
1486019062.76,28626,6.69,72960.5,-9.13,-41.35,-41.35,0,*53
1486019064.05,28627,6.69,72940.5,-9.15,-41.23,-41.55,0,*55
1486019065.29,28628,6.69,72962.8,-9.15,-41.41,-41.61,0,*59
1486019066.56,28629,6.69,72970.0,-9.15,-41.41,-41.67,0,*5E
1486019067.83,28630,6.69,72968.3,-9.15,-41.41,-41.67,0,*56
1486019069.09,28631,6.69,72980.8,-9.15,-41.41,-41.81,0,*5F
1486019070.35,28632,6.69,72972.0,-9.15,-41.41,-41.81,0,*5C
1486019071.59,28633,6.69,72976.5,-9.15,-41.41,-41.61,0,*53
1486019072.88,28634,6.69,72992.3,-9.15,-41.35,-41.35,0,*56
1486019074.15,28635,6.69,72980.5,-9.15,-41.03,-41.35,0,*52
1486019075.44,28636,6.69,72970.0,-9.15,-41.35,-41.55,0,*52
1486019076.74,28637,6.69,72926.8,-9.15,-41.35,-41.35,0,*55
1486019078.01,28638,6.69,72928.5,-9.17,-41.23,-41.17,0,*5F
1486019079.27,28639,6.69,72920.3,-9.15,-40.85,-41.17,0,*51
1486019080.54,28640,6.69,72928.0,-9.17,-41.03,-41.23,0,*55
1486019081.81,28641,6.69,72932.3,-9.15,-41.23,-41.41,0,*50
1486019083.08,28642,6.69,72936.0,-9.15,-41.23,-41.41,0,*53
1486019084.35,28643,6.69,72946.5,-9.15,-41.23,-41.41,0,*52
1486019085.61,28644,6.69,72958.3,-9.15,-41.23,-41.61,0,*57
1486019086.88,28645,6.69,72940.3,-9.15,-41.41,-41.67,0,*54
1486019088.12,28646,6.69,72934.5,-9.15,-41.41,-41.61,0,*51
1486019089.39,28647,6.69,72954.0,-9.15,-41.41,-41.67,0,*56
1486019090.68,28648,6.69,72956.3,-9.15,-41.35,-41.55,0,*5B
1486019091.95,28649,6.69,72956.8,-9.15,-41.41,-41.67,0,*58
1486019093.22,28650,6.69,72958.8,-9.15,-41.41,-41.55,0,*51
1486019094.45,28651,6.69,72950.8,-9.15,-41.41,-41.61,0,*57
1486019095.69,28652,6.69,72950.8,-9.15,-41.41,-41.61,0,*54
1486019096.95,28653,6.69,72970.3,-9.15,-41.55,-41.87,0,*58
1486019098.2,28654,6.69,72966.5,-9.15,-41.61,-41.87,0,*58
1486019099.44,28655,6.69,72962.3,-9.15,-41.61,-41.87,0,*59
1486019100.72,28656,6.69,72972.8,-9.15,-41.55,-41.81,0,*5B
1486019102.02,28657,6.69,72962.5,-9.15,-41.55,-41.67,0,*52
1486019103.28,28658,6.69,72966.0,-9.15,-41.55,-41.61,0,*5B
1486019104.52,28659,6.69,72964.0,-9.13,-41.55,-41.73,0,*5F
1486019105.78,28660,6.69,72970.3,-9.13,-41.55,-41.93,0,*5B
1486019107.04,28661,6.69,72982.5,-9.15,-41.67,-41.99,0,*57
1486019108.31,28662,6.69,72978.0,-9.15,-41.67,-41.99,0,*54
1486019109.6,28663,6.69,72968.0,-9.15,-41.55,-41.67,0,*55
1486019110.87,28664,6.69,72978.5,-9.15,-41.35,-41.41,0,*50
1486019112.11,28665,6.69,72974.3,-9.15,-41.41,-41.41,0,*52
1486019113.41,28666,6.69,72978.0,-9.17,-41.35,-41.55,0,*55
1486019114.68,28667,6.69,72990.3,-9.15,-41.23,-41.41,0,*54
1486019115.97,28668,6.69,72984.5,-9.15,-41.23,-41.55,0,*5E
1486019117.26,28669,6.69,72980.0,-9.15,-41.55,-41.81,0,*57
1486019118.52,28670,6.69,72972.8,-9.17,-41.55,-41.41,0,*51
1486019119.76,28671,6.69,72952.0,-9.17,-41.41,-41.61,0,*57
1486019121.0,28672,6.69,72950.0,-9.15,-41.41,-41.61,0,*56
1486019122.26,28673,6.69,72962.0,-9.17,-41.55,-41.61,0,*50
1486019123.53,28674,6.69,72952.0,-9.17,-41.41,-41.67,0,*54
1486019124.8,28675,6.69,72962.5,-9.17,-41.61,-41.81,0,*5F
1486019126.04,28676,6.69,72954.0,-9.17,-41.17,-41.41,0,*51
1486019127.31,28677,6.69,72942.8,-9.17,-41.41,-41.67,0,*57
1486019128.58,28678,6.69,72934.5,-9.15,-41.41,-41.67,0,*5A
1486019129.82,28679,6.69,72932.5,-9.17,-41.61,-41.87,0,*55
1486019131.09,28680,6.69,72946.5,-9.17,-41.67,-41.87,0,*55
1486019132.34,28681,6.69,72964.8,-9.17,-41.61,-41.87,0,*52
1486019133.58,28682,6.69,72984.3,-9.17,-41.61,-41.87,0,*51
1486019134.87,28683,6.69,72984.3,-9.17,-41.55,-41.81,0,*51
1486019136.14,28684,6.69,72944.0,-9.17,-41.41,-41.55,0,*5A
1486019137.4,28685,6.69,72956.3,-9.17,-41.17,-41.35,0,*5E
1486019138.67,28686,6.69,72960.3,-9.17,-41.17,-41.35,0,*5D
1486019139.96,28687,6.75,72952.3,-9.17,-41.35,-41.23,0,*5B
1486019141.26,28688,6.75,72918.5,-9.17,-41.23,-41.55,0,*52
1486019142.55,28689,6.69,72918.0,-9.15,-41.35,-41.55,0,*56
1486019143.79,28690,6.75,72926.5,-9.17,-41.41,-41.61,0,*58
1486019145.09,28691,6.69,72906.8,-9.17,-41.35,-41.55,0,*5D
1486019146.36,28692,6.75,72892.0,-9.17,-41.35,-41.41,0,*5B
1486019147.65,28693,6.75,72880.3,-9.17,-41.23,-41.35,0,*5E
1486019148.95,28694,6.69,72888.5,-9.17,-41.23,-41.35,0,*59
1486019150.24,28695,6.69,72842.0,-9.17,-40.59,-39.97,0,*53
1486019151.53,28696,6.69,72886.0,-9.17,-40.85,-40.97,0,*5F
1486019152.8,28697,6.75,72912.3,-9.15,-41.41,-41.55,0,*5A
1486019154.07,28698,6.69,72912.5,-9.15,-41.41,-41.55,0,*55
1486019155.34,28699,6.69,72914.8,-9.15,-41.41,-41.67,0,*55
1486019156.61,28700,6.69,72904.5,-9.15,-41.41,-41.67,0,*54
1486019157.88,28701,6.69,72926.8,-9.17,-41.35,-41.41,0,*50
1486019159.12,28702,6.69,72922.5,-9.17,-41.41,-41.61,0,*52
1486019160.38,28703,6.69,72934.0,-9.15,-41.55,-41.61,0,*54
1486019161.67,28704,6.69,72946.3,-9.15,-41.55,-41.55,0,*54
1486019162.91,28705,6.69,72946.5,-9.15,-41.61,-41.61,0,*55
1486019164.17,28706,6.75,72934.8,-9.15,-41.03,-39.79,0,*54
1486019165.44,28707,6.69,72940.8,-9.17,-36.31,-36.79,0,*59
1486019166.67,28708,6.75,72954.5,-9.17,-38.97,-41.17,0,*5C
1486019167.96,28709,6.75,72938.0,-9.17,-41.55,-41.81,0,*52
1486019169.22,28710,6.69,72922.8,-9.19,-41.67,-41.93,0,*56
1486019170.52,28711,6.75,72910.0,-9.17,-41.55,-41.55,0,*52
1486019171.78,28712,6.69,72908.5,-9.17,-41.61,-41.81,0,*5F
1486019173.07,28713,6.75,72936.8,-9.17,-41.55,-41.55,0,*50
1486019174.36,28714,6.69,72938.5,-9.17,-40.21,-40.59,0,*58
1486019175.57,28715,6.69,72946.3,-9.19,-41.11,-41.49,0,*55
1486019176.79,28716,6.69,72946.5,-9.19,-41.41,-41.61,0,*59
1486019178.0,28717,6.75,72946.3,-9.19,-41.61,-41.73,0,*59
1486019179.25,28718,6.69,72966.5,-9.19,-41.67,-41.73,0,*50
1486019180.51,28719,6.75,72978.3,-9.21,-41.11,-41.23,0,*5E
1486019181.75,28720,6.75,72964.8,-9.19,-40.85,-41.61,0,*55
1486019182.97,28721,6.69,72954.3,-9.19,-38.85,-37.15,0,*59
1486019184.24,28722,6.69,72960.5,-9.21,-37.99,-38.55,0,*58
1486019185.48,28723,6.69,72954.5,-9.21,-41.49,-41.73,0,*5F
1486019186.7,28724,6.69,72944.0,-9.19,-41.49,-41.73,0,*53
1486019187.93,28725,6.75,72940.0,-9.19,-41.73,-41.93,0,*55
1486019189.17,28726,6.75,72932.5,-9.21,-41.61,-41.73,0,*50
1486019190.44,28727,6.69,72936.0,-9.21,-41.67,-41.73,0,*57
1486019191.71,28728,6.75,72950.5,-9.21,-41.67,-41.73,0,*58
1486019192.98,28729,6.75,72956.5,-9.21,-41.67,-41.73,0,*59
1486019194.25,28730,6.69,72948.3,-9.21,-41.67,-41.73,0,*51
1486019195.48,28731,6.69,72948.3,-9.21,-41.61,-41.49,0,*5F
1486019196.72,28732,6.69,72948.8,-9.21,-40.53,-40.91,0,*58
1486019198.0,28733,6.69,72946.5,-9.21,-40.91,-40.85,0,*52
1486019199.23,28734,6.75,72954.8,-9.21,-40.03,-40.65,0,*50
1486019200.5,28735,6.69,72956.3,-9.21,-41.49,-41.67,0,*5D
1486019201.77,28736,6.69,72938.0,-9.21,-41.41,-41.67,0,*56
1486019203.04,28737,6.69,72930.5,-9.23,-41.35,-41.67,0,*56
1486019204.25,28738,6.75,72938.0,-9.23,-41.17,-41.29,0,*53
1486019205.46,28739,6.69,72938.5,-9.23,-41.29,-41.49,0,*59
1486019206.66,28740,6.69,72936.5,-9.23,-41.29,-41.17,0,*5C
1486019207.9,28741,6.69,72932.0,-9.23,-41.35,-41.17,0,*50
1486019209.14,28742,6.69,72928.5,-9.23,-40.97,-40.73,0,*59
1486019210.37,28743,6.69,72932.3,-9.27,-40.59,-40.35,0,*5C
1486019211.61,28744,6.69,72940.3,-9.27,-39.97,-40.35,0,*57
1486019212.82,28745,6.69,72926.8,-9.23,-40.53,-41.11,0,*53
1486019214.02,28746,6.69,72942.8,-9.23,-40.53,-40.91,0,*59
1486019215.26,28747,6.75,72948.3,-9.27,-40.47,-40.79,0,*5F
1486019216.5,28748,6.69,72946.0,-9.23,-40.53,-40.97,0,*51
1486019217.71,28749,6.69,72956.3,-9.23,-40.91,-41.29,0,*5A
1486019218.95,28750,6.75,72960.8,-9.27,-40.97,-41.17,0,*5D
1486019220.19,28751,6.69,72950.0,-9.27,-40.97,-41.49,0,*57
1486019221.46,28752,6.75,72974.3,-9.27,-40.97,-41.35,0,*5F
1486019222.7,28753,6.69,72970.0,-9.27,-40.97,-41.49,0,*55
1486019223.97,28754,6.69,72974.0,-9.27,-41.35,-41.67,0,*57
1486019225.25,28755,6.69,72976.8,-9.27,-41.55,-41.67,0,*50
1486019226.51,28756,6.69,72964.8,-9.27,-41.55,-41.81,0,*5B
1486019227.78,28757,6.69,72966.5,-9.27,-41.55,-41.67,0,*52
1486019229.05,28758,6.75,72978.8,-9.29,-41.55,-41.73,0,*56
1486019230.29,28759,6.69,72958.8,-9.29,-41.73,-41.87,0,*58
1486019231.51,28760,6.69,72960.5,-9.31,-41.73,-41.73,0,*50
1486019232.75,28761,6.69,72962.3,-9.29,-41.61,-41.61,0,*58
1486019234.0,28762,6.69,72962.8,-9.29,-41.61,-41.73,0,*58
1486019235.21,28763,6.69,72962.0,-9.31,-41.61,-41.73,0,*50
1486019236.46,28764,6.69,72960.0,-9.31,-41.61,-41.81,0,*5A
1486019237.72,28765,6.69,72958.0,-9.29,-41.73,-41.81,0,*51
1486019238.96,28766,6.75,72960.0,-9.29,-41.73,-41.87,0,*54
1486019240.23,28767,6.69,72964.3,-9.31,-41.55,-41.81,0,*5E
1486019241.47,28768,6.69,72962.0,-9.31,-41.55,-41.73,0,*5C
1486019242.71,28769,6.69,72960.0,-9.31,-41.35,-41.73,0,*5B
1486019243.98,28770,6.69,72952.0,-9.29,-41.61,-41.81,0,*56
1486019245.25,28771,6.69,72950.0,-9.29,-41.55,-41.41,0,*5C
1486019246.49,28772,6.69,72946.3,-9.31,-40.97,-41.17,0,*5A
1486019247.73,28773,6.69,72950.8,-9.31,-40.97,-41.41,0,*58
1486019248.99,28774,6.69,72948.8,-9.33,-40.85,-41.49,0,*56
1486019250.26,28775,6.69,72950.3,-9.33,-40.47,-40.85,0,*58
1486019251.53,28776,6.69,72944.8,-9.33,-39.71,-40.65,0,*5E
1486019252.77,28777,6.69,72950.5,-9.33,-39.35,-40.03,0,*5F
1486019254.01,28778,6.69,72948.8,-9.33,-39.35,-39.91,0,*55
1486019255.28,28779,6.75,72954.0,-9.33,-38.67,-39.09,0,*53
1486019256.52,28780,6.69,72952.3,-9.33,-38.55,-38.85,0,*51
1486019257.76,28781,6.69,72954.3,-9.33,-38.05,-38.55,0,*58
1486019259.02,28782,6.69,72954.3,-9.33,-38.17,-38.11,0,*58
1486019260.29,28783,6.69,72966.0,-9.35,-38.29,-38.49,0,*5F
1486019261.56,28784,6.69,72966.5,-9.33,-37.87,-37.93,0,*5D
1486019262.81,28785,6.75,72962.3,-9.33,-38.55,-38.85,0,*54
1486019264.09,28786,6.69,72954.3,-9.33,-38.67,-38.67,0,*5A
1486019265.3,28787,6.69,72958.0,-9.35,-38.17,-38.05,0,*5E
1486019266.59,28788,6.69,72962.3,-9.33,-38.29,-38.11,0,*5F
1486019267.87,28789,6.69,72968.3,-9.35,-38.29,-38.29,0,*53
1486019269.11,28790,6.69,72954.8,-9.35,-38.91,-38.85,0,*5E
1486019270.37,28791,6.75,72952.8,-9.35,-39.29,-38.91,0,*58
1486019271.61,28792,6.69,72960.5,-9.33,-38.73,-37.33,0,*54
1486019272.83,28793,6.75,72970.8,-9.35,-38.35,-37.87,0,*5E
1486019274.09,28794,6.69,72968.3,-9.35,-39.23,-39.29,0,*55
1486019275.36,28795,6.69,72964.8,-9.35,-39.71,-39.29,0,*53
1486019276.6,28796,6.69,72970.3,-9.35,-39.35,-39.23,0,*5A
1486019277.9,28797,6.69,72974.5,-9.37,-39.71,-39.79,0,*56
1486019279.17,28798,6.69,72972.5,-9.37,-40.09,-39.91,0,*5E
1486019280.44,28799,6.69,72978.8,-9.37,-39.79,-39.35,0,*58
1486019281.69,28800,6.69,72972.0,-9.39,-40.15,-40.09,0,*5C
1486019282.93,28801,6.69,72968.3,-9.37,-40.35,-40.47,0,*5B
1486019284.17,28802,6.69,72982.8,-9.37,-40.47,-40.53,0,*58
1486019285.41,28803,6.69,72980.0,-9.37,-40.47,-40.53,0,*59
1486019286.68,28804,6.69,72976.5,-9.37,-40.65,-40.97,0,*56
1486019287.89,28805,6.75,72976.0,-9.39,-40.73,-41.11,0,*51
1486019289.16,28806,6.75,72978.0,-9.37,-40.97,-41.29,0,*5D
1486019290.42,28807,6.69,72982.3,-9.37,-40.79,-41.17,0,*51
1486019291.69,28808,6.69,72980.5,-9.37,-41.11,-41.35,0,*51
1486019292.99,28809,6.75,72978.0,-9.37,-40.97,-41.35,0,*5F
1486019294.28,28810,6.69,72974.8,-9.37,-40.97,-41.35,0,*57
1486019295.52,28811,6.75,72972.0,-9.39,-41.11,-41.55,0,*51
1486019296.76,28812,6.69,72976.8,-9.39,-40.97,-41.29,0,*56
1486019298.02,28813,6.69,72986.0,-9.37,-40.79,-41.29,0,*59
1486019299.26,28814,6.69,72984.5,-9.39,-41.11,-41.67,0,*55
1486019300.53,28815,6.69,72980.3,-9.39,-41.35,-41.55,0,*53
1486019301.8,28816,6.69,72982.5,-9.39,-41.35,-41.55,0,*50
1486019303.04,28817,6.69,72978.8,-9.39,-41.35,-41.73,0,*55
1486019304.31,28818,6.69,72978.3,-9.37,-41.35,-41.49,0,*5D
1486019305.55,28819,6.69,72982.8,-9.41,-41.73,-41.99,0,*52
1486019306.77,28820,6.69,72984.0,-9.39,-41.49,-41.73,0,*5A
1486019308.04,28821,6.69,72978.3,-9.41,-41.17,-41.35,0,*5D
1486019309.27,28822,6.69,72968.5,-9.39,-40.97,-41.17,0,*58
1486019310.54,28823,6.69,72960.8,-9.39,-40.79,-40.97,0,*50